Regional Weather Roundup
Issued by NWS

Home | Current Version | Previous Version | Graphics & Text | Print | Product List | Glossary On
Versions: 1 2 3 4 5 6 7 8 9 10 11 12 13 14 15 16 17 18 19 20 21 22 23 24 25 26 27 28 29 30 31 32 33 34 35 36 37 38 39 40 41 42 43 44 45 46 47 48 49 50
000
ASUS43 KMPX 281310
RWRMN
WEATHER ROUNDUP FOR MINNESOTA
NATIONAL WEATHER SERVICE TWIN CITIES/CHANHASSEN MN
800 AM CDT TUE MAR 28 2017


NOTE: "FAIR" INDICATES FEW OR NO CLOUDS BELOW 12,000 FEET WITH NO
SIGNIFICANT WEATHER AND/OR OBSTRUCTIONS TO VISIBILITY. N/A MEANS
CURRENT SKY AND/OR WEATHER CONDITIONS ARE NOT AVAILABLE.

MNZ060>063-068>070-281400-
   Twin Cities Metro

CITY           SKY/WX    TMP DP  RH WIND       PRES   REMARKS
TWIN CITIES    PTCLDY    38  34  85 CALM      30.11R
ST PAUL        CLEAR     35  35 100 CALM      30.12R
CRYSTAL        CLEAR     33  28  81 CALM      30.10R
BLAINE         CLEAR     34  34 100 CALM      30.10R
LAKEVILLE      CLEAR     30  30 100 CALM      30.11R
EDEN PRAIRIE   CLEAR     36  34  92 N3        30.10R
SOUTH ST PAUL  CLEAR     32  32  99 CALM      30.11S FOG
LAKE ELMO      FAIR      32  30  93 CALM      30.12R
$$
MNZ001>005-007-008-013>017-022>024-027-028-281400-
   Northwest Minnesota

CITY           SKY/WX    TMP DP  RH WIND       PRES   REMARKS
BEMIDJI        MOCLDY    31  28  90 NW3       30.12R
HALLOCK        PTCLDY    32  30  93 NW3       30.17R
ROSEAU         CLEAR     30  27  86 CALM      30.16R
WARROAD        CLOUDY    30  28  93 N3        30.16R
THIEF RVR FALL MOCLDY   N/A N/A N/A NE8       30.15R
CROOKSTON      MOCLDY    32  32 100 N3        30.16R FOG
FOSSTON        CLOUDY    34  30  86 NE5       30.13R WCI  30
DETROIT LAKES  CLEAR     32  30  93 CALM      30.12R
MOORHEAD       FOG       30  28  93 N7        30.14S VSB<1/4 WCI  23
PARK RAPIDS    PTCLDY    30  25  81 NW3       30.10R
MAHNOMEN       CLOUDY    31  30  96 NE3       30.12R
$$
MNZ006-009>011-018-025>026-281400-
   North Central Minnesota

CITY           SKY/WX    TMP DP  RH WIND       PRES   REMARKS
BAUDETTE       PTCLDY    32  27  81 N5        30.14R WCI  27
FLAG ISLAND    CLOUDY    30  27  86 N5        30.17R WCI  25
INTL FALLS     MOCLDY    35  27  72 NE6       30.12R WCI  30
WASKISH        CLEAR     32  30  93 N3        30.13R
BIG FORK       PTCLDY    28  25  86 CALM      30.11R
LONGVILLE      CLEAR     27  27 100 CALM      30.11R
GRAND RAPIDS   CLEAR     29  27  92 N5        30.13R WCI  24
CRANE LAKE     CLEAR     25  23  93 CALM      30.15R
ORR            MOCLDY    27  25  93 CALM      30.10R
COOK           CLOUDY    28  27  93 CALM      30.11S
WALKER         FAIR      28  24  85 CALM      30.11R
$$
MNZ012-019>021-037-281400-
   Northeast Minnesota

CITY           SKY/WX    TMP DP  RH WIND       PRES   REMARKS
DULUTH         SUNNY     31  29  92 CALM      30.11R
ELY            PTSUNNY   27  27 100 CALM      30.11R
HIBBING        CLEAR     26  25  96 CALM      30.11R
EVELETH        CLEAR     28  27  94 CALM      30.12S
DULUTH HARBOR  SUNNY     30  28  93 CALM      30.15R
TWO HARBORS    SUNNY     34  28  80 CALM      30.10R
SILVER BAY     MOSUNNY   30  28  93 CALM      30.10R
GRAND MARAIS     N/A     35  31  85 NE3       30.11F
G MARAIS ARPRT CLOUDY    30  25  80 W5        30.10R WCI  25
$$
MNZ029>031-032-039>041-046>048-054>057-064-281400-
   West Central Minnesota

CITY           SKY/WX    TMP DP  RH WIND       PRES   REMARKS
FERGUS FALLS   CLEAR     32  32 100 NE6       30.16R FOG     WCI  26
WHEATON        FOG       30  28  93 NW5       30.15R VSB<1/4 WCI  25
MORRIS         CLEAR     30  28  93 NW5       30.11R WCI  25
ALEXANDRIA     CLEAR     34  31  88 CALM      30.11R
ELBOW LAKE     FAIR      32  31  98 CALM      30.12R
WADENA         CLEAR     27  27 100 S3        30.11R
GLENWOOD       CLEAR     36  34  93 CALM      30.12R
APPLETON       CLEAR     32  30  93 CALM      30.12R
BENSON         CLEAR     34  28  80 CALM      30.13R
ORTONVILLE     CLEAR     32  30  93 CALM      30.11R
MADISON        CLEAR     36  36 100 CALM      30.11R
WILLMAR        FAIR      36  34  93 NE6       30.12R
$$
MNZ033>034-036-042>043-049>051-058-059-281400-
   Central Minnesota

CITY           SKY/WX    TMP DP  RH WIND       PRES   REMARKS
ST CLOUD       CLEAR     31  30  96 CALM      30.11R
SAUK CENTRE    FAIR      28  27  96 CALM      30.12R
PAYNESVILLE      N/A     29  29 100 W3        30.13R FOG
AITKIN         CLEAR     28  25  86 CALM      30.11R
PINE RIVER     CLEAR     27  25  93 CALM      30.14R
BRAINERD       CLEAR     27  25  92 CALM      30.12R
STAPLES        CLEAR     28  27  93 CALM      30.11R
LONG PRAIRIE   FAIR      30  30 100 CALM      30.12R
LITTLE FALLS   CLEAR     28  27  93 CALM      30.13R FOG
LITCHFIELD     CLEAR     37  36  93 CALM      30.12R
BUFFALO        CLEAR     33  31  92 CALM      30.13R
MAPLE LAKE     CLEAR     33  33 100 CALM      30.13R
HUTCHINSON     MOCLDY    34  33  96 CALM      30.12R
$$
MNZ037-044-045-052-053-281400-
   East Central Minnesota

CITY           SKY/WX    TMP DP  RH WIND       PRES   REMARKS
PRINCETON      CLEAR     30  28  93 CALM      30.12R FOG
MORA           CLEAR     28  28 100 CALM      30.14R
CAMBRIDGE      CLEAR     30  27  86 CALM      30.11R
RUSH CITY      CLEAR     31  29  93 CALM      30.13R
MOOSE LAKE     CLEAR     27  27 100 CALM      30.12R
CLOQUET        SUNNY     28  27  93 CALM      30.11R
MCGREGOR       CLEAR     28  28 100 CALM      30.12R
$$
MNZ071>073-080-081-089-090-097-098-281400-
   Southwest Minnesota

CITY           SKY/WX    TMP DP  RH WIND       PRES   REMARKS
MONTEVIDEO     PTCLDY    37  34  87 E3        30.13R
GRANITE FALLS  CLEAR     35  33  92 CALM      30.13R
CANBY          CLEAR     33  32  95 CALM      30.12R
MARSHALL       PTCLDY    34  32  92 W7        30.11R WCI  28
REDWOOD FALLS  CLOUDY    39  33  79 CALM      30.11R
OLIVIA         CLEAR     37  32  81 CALM      30.11R
PIPESTONE      PTCLDY    37  34  87 NE3       30.08R FOG
WINDOM         CLEAR     34  34 100 CALM      30.10R FOG
WORTHINGTON    CLEAR     35  34  96 NW5       30.10R WCI  31
JACKSON        CLEAR     34  34 100 CALM      30.10R FOG
TRACY          CLEAR     40  38  89 W5        30.10R
SLAYTON        PTCLDY    33  33  98 NW3       30.10R FOG
$$
MNZ065>067-074>077-082>085-091>093-281400-
   South Central Minnesota

CITY           SKY/WX    TMP DP  RH WIND       PRES   REMARKS
MANKATO        CLEAR     36  36 100 SE3       30.11R
NEW ULM        CLOUDY    36  34  93 CALM      30.11R
ST JAMES       CLEAR     34  34 100 CALM      30.12R FOG
FAIRMONT       CLEAR     34  34 100 NW3       30.11R FOG
GLENCOE        CLEAR     33  33 100 CALM      30.11R
FARIBAULT      CLEAR     32  30  93 CALM      30.11R FOG
OWATONNA       CLEAR     34  30  86 CALM      30.10R FOG
WASECA         CLEAR     32  32 100 CALM      30.11R FOG
ALBERT LEA     CLOUDY    30  30 100 CALM      30.09S VSB 1/4
$$
MNZ078>079-086>088-094>096-281400-
   Southeast Minnesota

CITY           SKY/WX    TMP DP  RH WIND       PRES   REMARKS
ROCHESTER      FOG       33  33 100 E3        30.10S VSB 1/2
RED WING       FOG       32  32 100 SE3       30.11R VSB<1/4
STANTON        CLEAR     31  29  93 CALM      30.10R
DODGE CENTER   FOG       30  30 100 CALM      30.10R VSB 1/2
WINONA         FOG       32  32 100 CALM      30.14R VSB<1/4
AUSTIN         SUNNY     32  30  93 CALM      30.09S
PRESTON        FOG       34  33  96 CALM      30.11R VSB 3/4
$$
ABBREVIATIONS USED IN REMARKS
   TC - TEMPERATURES IN CELSIUS
  WCI - WIND CHILL INDEX
   HX - HEAT INDEX
  VSB - VISIBILITY
$$




USA.gov is the U.S. government's official web portal to all federal, state and local government web resources and services.